GW4159 Weather Reports


time (UTC)temp
C
wind
direction
speed
KPH
gust
KPH
rain 1hr
cm
rain 24hr
cm
rain mn
cm
humidity
%
barometer
mb
20260507203025 18 103 11.3 16.1 0.00 0.05 0.05 81 1013.4
20260507201524 18 127 12.9 17.7 0.00 0.05 0.05 80 1013.4
20260507200019 18 359 11.3 19.3 0.00 0.05 0.05 80 1013.4
20260507194530 18 112 12.9 17.7 0.00 0.05 0.05 80 1013.3
20260507193016 18 119 12.9 17.7 0.00 0.08 0.05 80 1013.2
20260507191516 18 131 14.5 22.5 0.00 0.08 0.05 81 1013.0
20260507190019 18 127 14.5 22.5 0.00 0.08 0.05 81 1013.0
20260507184513 18 122 14.5 20.9 0.00 0.08 0.05 80 1012.9
20260507183014 18 126 16.1 24.1 0.00 0.33 0.05 79 1012.7
20260507181510 18 122 16.1 24.1 0.00 0.33 0.05 75 1012.6
20260507180042 18 118 16.1 20.9 0.00 0.33 0.05 75 1012.5
20260507174540 18 116 16.1 20.9 0.00 0.33 0.05 74 1012.3
20260507173045 18 120 12.9 24.1 0.00 0.33 0.05 74 1012.3
20260507171537 18 124 12.9 19.3 0.00 0.33 0.05 73 1012.3
20260507170037 18 112 16.1 22.5 0.00 0.33 0.05 73 1012.1
20260507164546 18 108 14.5 19.3 0.00 0.33 0.05 70 1012.1
20260507163033 18 116 12.9 19.3 0.00 0.33 0.05 73 1011.9
20260507161547 18 95 14.5 17.7 0.00 0.33 0.05 71 1011.9
20260507160033 18 104 11.3 19.3 0.00 0.33 0.05 71 1011.9
20260507154532 18 94 14.5 19.3 0.00 0.33 0.05 71 1011.9
20260507153035 18 120 14.5 17.7 0.00 0.46 0.05 69 1012.1
20260507151533 18 112 12.9 19.3 0.00 0.46 0.05 70 1012.1
20260507150033 18 95 16.1 19.3 0.00 0.46 0.05 71 1012.1
20260507144534 18 100 12.9 20.9 0.00 0.46 0.05 72 1012.1
20260507143028 18 108 16.1 20.9 0.00 0.46 0.05 71 1012.2
20260507141525 18 120 12.9 17.7 0.00 0.46 0.05 72 1012.2
20260507140025 18 101 14.5 20.9 0.00 0.46 0.05 71 1012.2
20260507134524 18 98 14.5 19.3 0.00 0.46 0.05 70 1012.1
20260507133025 18 86 14.5 17.7 0.00 0.46 0.05 72 1012.3
20260507131521 18 81 12.9 16.1 0.00 0.46 0.05 72 1012.4
20260507130020 18 77 14.5 17.7 0.00 0.46 0.05 72 1012.4
20260507124521 18 78 12.9 17.7 0.00 0.46 0.05 71 1012.4
20260507123020 18 63 11.3 16.1 0.00 0.46 0.05 72 1012.5
20260507121517 18 51 11.3 16.1 0.00 0.46 0.05 71 1012.5
20260507120016 18 64 11.3 16.1 0.00 0.46 0.05 70 1012.6
20260507114516 18 73 12.9 14.5 0.00 0.46 0.05 70 1012.6
20260507113033 18 55 11.3 14.5 0.00 0.46 0.05 69 1012.6
20260507111513 18 65 11.3 14.5 0.00 0.46 0.05 70 1012.7
20260507110015 18 62 8.0 14.5 0.00 0.46 0.05 70 1012.8
20260507104513 18 60 9.7 14.5 0.00 0.46 0.05 64 1012.9
20260507103010 18 53 9.7 11.3 0.00 0.46 0.05 68 1013.0
20260507101514 18 47 12.9 14.5 0.00 0.46 0.05 68 1013.1
20260507100006 18 56 9.7 11.3 0.00 0.46 0.05 69 1013.2
20260507094506 18 54 9.7 14.5 0.00 0.46 0.05 65 1013.2
20260507093003 18 58 6.4 9.7 0.00 0.46 0.05 64 1013.1
20260507091635 18 87 8.0 12.9 0.00 0.46 0.05 65 1013.2
20260507090057 18 79 6.4 11.3 0.00 0.46 0.05 63 1013.0
20260507084609 18 49 4.8 8.0 0.00 0.46 0.05 63 1012.8
20260507083052 18 342 0.0 8.0 0.00 0.48 0.05 61 1012.8
20260507081532 18 256 6.4 11.3 0.00 0.48 0.05 61 1012.7
20260507080016 18 328 4.8 8.0 0.00 0.48 0.05 58 1012.6
20260507074550 18 239 3.2 8.0 0.00 0.48 0.05 56 1012.6
20260507073044 17 239 1.6 6.4 0.00 0.48 0.05 60 1012.6
20260507071511 17 238 4.8 11.3 0.00 0.48 0.05 63 1012.6
20260507070013 17 233 6.4 9.7 0.00 0.48 0.05 65 1012.5
20260507064539 16 252 9.7 14.5 0.00 0.48 0.05 66 1012.4
20260507063041 16 248 9.7 16.1 0.00 0.48 0.05 65 1012.3
20260507061536 16 252 9.7 17.7 0.00 0.48 0.05 64 1012.2
20260507060033 16 245 11.3 17.7 0.00 0.48 0.05 63 1012.1
20260507054531 16 255 9.7 17.7 0.00 0.48 0.05 63 1012.1
20260507053030 16 222 6.4 12.9 0.00 0.58 0.05 66 1012.0
20260507051527 15 222 4.8 8.0 0.00 0.58 0.05 68 1011.8
20260507050029 15 221 3.2 4.8 0.00 0.58 0.05 68 1011.7
20260507044522 15 220 4.8 8.0 0.00 0.58 0.05 67 1011.3
20260507043026 15 214 4.8 12.9 0.00 0.81 0.05 67 1011.2
20260507041555 15 227 6.4 12.9 0.00 0.81 0.05 67 1011.1
20260507040050 15 211 6.4 9.7 0.00 0.81 0.05 68 1011.0
20260507034547 15 216 6.4 11.3 0.00 0.81 0.05 67 1011.0
20260507033045 15 227 8.0 12.9 0.00 0.81 0.05 67 1010.9
20260507031547 16 235 8.0 16.1 0.00 0.81 0.05 65 1010.8
20260507030043 16 231 4.8 14.5 0.00 0.81 0.05 64 1010.8
20260507024515 16 211 4.8 12.9 0.00 0.81 0.05 64 1010.7
20260507023012 16 217 9.7 17.7 0.00 0.81 0.05 63 1010.8
20260507021510 16 203 9.7 22.5 0.00 0.81 0.05 62 1010.9
20260507020009 16 218 9.7 22.5 0.00 0.81 0.05 63 1010.9
20260507014507 16 214 11.3 16.1 0.00 0.81 0.05 63 1010.8
20260507013006 16 226 9.7 16.1 0.00 0.86 0.05 66 1010.7
20260507011544 16 222 12.9 19.3 0.00 0.86 0.05 66 1010.5
20260507010037 16 216 9.7 22.5 0.00 0.86 0.05 65 1010.4
20260507004532 16 211 12.9 22.5 0.00 0.86 0.05 66 1010.5
20260507003031 16 220 14.5 22.5 0.00 0.86 0.05 66 1010.4
20260507001602 16 195 11.3 22.5 0.03 0.86 0.05 66 1010.5
20260507000035 16 220 14.5 27.4 0.05 0.86 0.05 67 1010.5
20260506234525 16 200 17.7 27.4 0.05 0.86 0.05 68 1010.8
20260506233023 16 195 14.5 22.5 0.05 0.86 0.05 72 1010.9
20260506231520 16 233 11.3 22.5 0.03 0.84 0.05 72 1011.1
20260506230017 16 224 12.9 19.3 0.00 0.81 0.03 70 1011.0
20260506224516 16 225 11.3 22.5 0.00 0.81 0.03 70 1011.1
20260506223012 16 223 9.7 25.7 0.03 0.81 0.03 70 1011.0
20260506221511 16 226 11.3 19.3 0.03 0.81 0.03 72 1011.0
20260506220010 17 237 11.3 17.7 0.03 0.81 0.03 71 1010.9
20260506214506 16 226 14.5 19.3 0.03 0.81 0.03 71 1010.9
20260506213002 17 226 22.5 32.2 0.00 0.79 0.00 66 1010.8
20260506211559 18 226 11.3 22.5 0.00 0.79 0.00 66 1010.7
20260506210100 18 218 11.3 29.0 0.00 0.79 0.00 65 1010.5
20260506204525 17 213 22.5 30.6 0.00 0.79 0.00 67 1010.5